DLH279 LIML-EDDF

Flight info

Callsign DLH279
Flight time N/A
Altitude 18000
Route PEPAG N851 ABESI/N0451F300 N851 UTAVO DCT ROLSA DCT LADOL T163 EMPAX EMPAX5C
Aircraft A320/M-SDE2E3FGIJ1LORWXYZ/HB1

Departure

Time 2026-05-01 08:57
Airport Milano Linate Airport (LIML)

Arrival

Time N/A
Airport Frankfurt Main Airport (EDDF)
Time Latitude Longitude Altitude Speed Heading
2026-05-01 08:33 45.45971 9.28033 365 ft 0 kts
2026-05-01 08:49 45.45956 9.28033 369 ft 4 kts 359°
2026-05-01 08:49 45.45931 9.28036 365 ft 4 kts 341°
2026-05-01 08:49 45.45911 9.28053 364 ft 4 kts 296°
2026-05-01 08:49 45.45907 9.28070 363 ft 0 kts 268°
2026-05-01 08:52 45.45907 9.28049 366 ft 7 kts 268°
2026-05-01 08:52 45.45891 9.27992 365 ft 6 kts 215°
2026-05-01 08:52 45.45840 9.27985 363 ft 9 kts 180°
2026-05-01 08:52 45.45782 9.27984 365 ft 10 kts 180°
2026-05-01 08:53 45.45668 9.27984 367 ft 19 kts 180°
2026-05-01 08:53 45.45533 9.27980 362 ft 15 kts 180°
2026-05-01 08:53 45.45471 9.27967 364 ft 7 kts 223°
2026-05-01 08:53 45.45460 9.27901 362 ft 6 kts 268°
2026-05-01 08:54 45.45460 9.27833 362 ft 8 kts 268°
2026-05-01 08:54 45.45442 9.27768 363 ft 7 kts 232°
2026-05-01 08:54 45.45412 9.27727 361 ft 0 kts 231°
2026-05-01 08:55 45.45405 9.27712 363 ft 8 kts 236°
2026-05-01 08:56 45.45388 9.27633 364 ft 8 kts 230°
2026-05-01 08:56 45.45341 9.27618 359 ft 6 kts 175°
2026-05-01 08:56 45.45218 9.27632 362 ft 47 kts 175°
2026-05-01 08:56 45.44639 9.27695 363 ft 116 kts 176°
2026-05-01 08:57 45.43667 9.27815 470 ft 156 kts 173°
2026-05-01 08:57 45.42598 9.27916 1187 ft 155 kts 172°
2026-05-01 08:57 45.41513 9.28030 1875 ft 160 kts 171°
2026-05-01 08:57 45.40329 9.27788 2322 ft 190 kts 205°
2026-05-01 08:58 45.39463 9.26224 2671 ft 220 kts 254°
2026-05-01 08:58 45.39577 9.23975 3035 ft 244 kts 296°
2026-05-01 08:58 45.40746 9.22193 3600 ft 260 kts 334°
2026-05-01 08:58 45.42474 9.21383 4557 ft 263 kts 351°
2026-05-01 08:59 45.44283 9.21028 5639 ft 262 kts 355°
2026-05-01 08:59 45.46107 9.20782 6721 ft 262 kts 355°
2026-05-01 08:59 45.47916 9.20508 7624 ft 265 kts 354°
2026-05-01 08:59 45.49760 9.20165 8479 ft 271 kts 354°
2026-05-01 09:00 45.51654 9.19752 9283 ft 278 kts 352°
2026-05-01 09:00 45.53592 9.19281 10096 ft 284 kts 353°
2026-05-01 09:00 45.55566 9.18771 10729 ft 297 kts 352°
2026-05-01 09:00 45.57688 9.18210 11016 ft 321 kts 352°
2026-05-01 09:01 45.59960 9.17601 11362 ft 340 kts 351°
2026-05-01 09:01 45.62294 9.16964 12010 ft 347 kts 351°
2026-05-01 09:01 45.64678 9.16311 12778 ft 350 kts 351°
2026-05-01 09:01 45.67083 9.15655 13569 ft 353 kts 352°
2026-05-01 09:02 45.69501 9.15001 14349 ft 355 kts 352°
2026-05-01 09:02 45.71952 9.14336 15030 ft 358 kts 352°
2026-05-01 09:02 45.74416 9.13669 15683 ft 362 kts 352°
2026-05-01 09:02 45.76876 9.13004 16339 ft 365 kts 352°
2026-05-01 09:03 45.79392 9.12321 16983 ft 369 kts 352°
2026-05-01 09:03 45.81937 9.11627 17593 ft 372 kts 352°
2026-05-01 09:03 45.84497 9.10929 18145 ft 377 kts 353°
2026-05-01 09:03 45.87055 9.10231 18367 ft 379 kts 353°
2026-05-01 09:04 45.89646 9.09526 18401 ft 379 kts 353°
2026-05-01 09:04 45.92245 9.08819 18413 ft 379 kts 352°
2026-05-01 09:04 45.93965 9.08349 18409 ft 379 kts 352°
2026-05-01 09:04 45.96558 9.07640 18409 ft 379 kts 352°
2026-05-01 09:05 45.99157 9.06954 18411 ft 379 kts 354°
2026-05-01 09:05 46.01766 9.06416 18402 ft 378 kts 356°
2026-05-01 09:05 46.04387 9.05992 18411 ft 379 kts 357°
2026-05-01 09:05 46.07013 9.05616 18411 ft 379 kts 357°
2026-05-01 09:06 46.09648 9.05245 18407 ft 379 kts 357°
2026-05-01 09:06 46.12281 9.04864 18406 ft 379 kts 357°
2026-05-01 09:06 46.14911 9.04466 18412 ft 380 kts 356°
2026-05-01 09:06 46.17509 9.04061 18406 ft 380 kts 357°
2026-05-01 09:07 46.20142 9.03684 18408 ft 379 kts 358°
2026-05-01 09:07 46.22762 9.03335 18402 ft 379 kts 358°
2026-05-01 09:07 46.25400 9.02994 18404 ft 380 kts 358°
2026-05-01 09:07 46.28052 9.02656 18405 ft 380 kts 358°
2026-05-01 09:08 46.30689 9.02315 18400 ft 380 kts 358°
2026-05-01 09:08 46.33335 9.01964 18397 ft 380 kts 358°
2026-05-01 09:08 46.35976 9.01607 18392 ft 380 kts 358°
2026-05-01 09:08 46.38572 9.01255 18384 ft 380 kts 358°
2026-05-01 09:09 46.41213 9.00901 18368 ft 381 kts 358°
2026-05-01 09:09 46.43863 9.00544 18366 ft 381 kts 358°
2026-05-01 09:09 46.46504 9.00189 18353 ft 380 kts 358°
2026-05-01 09:09 46.49134 8.99836 18349 ft 380 kts 358°
2026-05-01 09:10 46.51770 8.99482 18351 ft 380 kts 358°
2026-05-01 09:10 46.54405 8.99125 18355 ft 379 kts 358°
2026-05-01 09:10 46.57033 8.98767 18352 ft 379 kts 358°
2026-05-01 09:10 46.59644 8.98413 18354 ft 379 kts 358°
2026-05-01 09:11 46.62273 8.98058 18349 ft 379 kts 358°
2026-05-01 09:11 46.64904 8.97701 18342 ft 380 kts 358°
2026-05-01 09:11 46.67532 8.97344 18341 ft 380 kts 358°
2026-05-01 09:11 46.70158 8.96989 18341 ft 378 kts 358°
2026-05-01 09:12 46.72778 8.96634 18333 ft 379 kts 358°
2026-05-01 09:12 46.75408 8.96277 18325 ft 380 kts 357°
2026-05-01 09:12 46.78048 8.95919 18330 ft 381 kts 357°
2026-05-01 09:12 46.80694 8.95560 18323 ft 382 kts 357°
2026-05-01 09:13 46.83311 8.95201 18327 ft 382 kts 357°
2026-05-01 09:13 46.85969 8.94839 18325 ft 382 kts 357°
2026-05-01 09:13 46.88633 8.94477 18316 ft 382 kts 357°
2026-05-01 09:13 46.91284 8.94111 18317 ft 382 kts 357°
2026-05-01 09:14 46.93900 8.93749 18317 ft 382 kts 357°
2026-05-01 09:14 46.96545 8.93385 18319 ft 382 kts 357°
2026-05-01 09:14 46.99197 8.93020 18319 ft 382 kts 357°
2026-05-01 09:14 47.01850 8.92656 18320 ft 382 kts 357°
2026-05-01 09:15 47.04508 8.92295 18309 ft 382 kts 357°
2026-05-01 09:15 47.07135 8.91935 18324 ft 384 kts 357°
2026-05-01 09:15 47.09809 8.91568 18320 ft 384 kts 357°
2026-05-01 09:15 47.12473 8.91203 18333 ft 384 kts 357°
2026-05-01 09:16 47.15138 8.90836 18337 ft 384 kts 357°
2026-05-01 09:16 47.17764 8.90475 18338 ft 384 kts 357°
2026-05-01 09:16 47.20429 8.90109 18340 ft 384 kts 357°
2026-05-01 09:17 47.25749 8.89370 18343 ft 384 kts 357°
2026-05-01 09:17 47.28411 8.89012 18345 ft 383 kts 359°
2026-05-01 09:17 47.33721 8.89255 18349 ft 381 kts
2026-05-01 09:18 47.36375 8.89449 18350 ft 381 kts
2026-05-01 09:18 47.41657 8.89835 18350 ft 382 kts
2026-05-01 09:19 47.46970 8.90219 18351 ft 382 kts
2026-05-01 09:19 47.49634 8.90407 18349 ft 382 kts
2026-05-01 09:19 47.52302 8.90597 18349 ft 382 kts
2026-05-01 09:20 47.57584 8.90969 18348 ft 382 kts
2026-05-01 09:20 47.62917 8.91362 18349 ft 383 kts
2026-05-01 09:21 47.68251 8.91760 18345 ft 387 kts
2026-05-01 09:21 47.70981 8.91964 18345 ft 407 kts
2026-05-01 09:21 47.76877 8.92405 18342 ft 434 kts
2026-05-01 09:22 47.82950 8.92846 18342 ft 437 kts
2026-05-01 09:22 47.89037 8.93275 18339 ft 437 kts
2026-05-01 09:23 47.92071 8.93491 18341 ft 437 kts
2026-05-01 09:23 47.98110 8.93945 18335 ft 437 kts
2026-05-01 09:24 48.04225 8.94410 18340 ft 440 kts
2026-05-01 09:24 48.07295 8.94641 18335 ft 440 kts
2026-05-01 09:24 48.13423 8.95104 18333 ft 440 kts
2026-05-01 09:25 48.19518 8.95633 18336 ft 440 kts
2026-05-01 09:25 48.25613 8.96544 18338 ft 440 kts
2026-05-01 09:26 48.28661 8.97065 18334 ft 439 kts
2026-05-01 09:26 48.34680 8.98070 17894 ft 433 kts
2026-05-01 09:26 48.37674 8.98539 17558 ft 433 kts
2026-05-01 09:27 48.43676 8.99446 17280 ft 433 kts
2026-05-01 09:27 48.46675 8.99896 17127 ft 433 kts
2026-05-01 09:27 48.49660 9.00344 16866 ft 426 kts
2026-05-01 09:28 48.52556 9.00779 16622 ft 411 kts
2026-05-01 09:28 48.55356 9.01203 16372 ft 397 kts